Location: Amherst
(42.5000°N, 72.5000°W)
Time: 14:46:17

ISS - Pass Details

Date: 17 March 2018
Orbit: 403 x 406 km, 51.6° (Epoch: 21 March)

Event Time Altitude Azimuth Distance (km) Brightness Sun altitude
Exits shadow 05:33:20 25° 315° (NW) 851 -2.5 -16.4°
Maximum altitude 05:35:02 66° 31° (NNE) 446 -3.5 -16.1°
Drops below altitude 10° 05:38:17 10° 115° (ESE) 1,457 -0.2 -15.5°
Sets 05:40:22 0° 118° (ESE) 2,313 0.8 -15.2°
